Time,TemperatureF,DewpointF,PressureIn,WindDirection,WindDirectionDegrees,WindSpeedMPH,WindSpeedGustMPH,Humidity,HourlyPrecipIn,Conditions,Clouds,dailyrainin,SoftwareType,DateUTC
2014-08-01 00:01:00,69.6,59.0,30.03,West,273,0.0,2.0,69,0.00,,,0.00,meteohub,2014-08-01 05:01:00,
2014-08-01 00:06:00,69.6,59.0,30.03,West,274,0.0,2.0,69,0.00,,,0.00,meteohub,2014-08-01 05:06:00,
2014-08-01 00:11:00,69.6,59.0,30.02,West,276,5.0,5.0,69,0.00,,,0.00,meteohub,2014-08-01 05:11:00,
2014-08-01 00:16:00,69.6,59.0,30.03,West,276,0.0,6.0,69,0.00,,,0.00,meteohub,2014-08-01 05:16:00,
2014-08-01 00:21:00,69.4,58.8,30.03,West,271,0.0,6.0,69,0.00,,,0.00,meteohub,2014-08-01 05:21:00,
2014-08-01 00:26:00,69.4,59.2,30.03,West,272,0.0,6.0,70,0.00,,,0.00,meteohub,2014-08-01 05:26:00,
2014-08-01 00:31:00,69.3,59.0,30.03,West,271,0.0,2.0,70,0.00,,,0.00,meteohub,2014-08-01 05:31:00,
2014-08-01 00:36:00,69.1,58.8,30.03,West,271,0.0,1.0,70,0.00,,,0.00,meteohub,2014-08-01 05:36:00,
2014-08-01 00:41:00,68.7,59.7,30.02,West,271,0.0,0.0,73,0.00,,,0.00,meteohub,2014-08-01 05:41:00,
2014-08-01 00:47:00,68.4,59.7,30.03,West,271,0.0,0.0,74,0.00,,,0.00,meteohub,2014-08-01 05:47:00,
2014-08-01 00:52:00,68.0,59.0,30.03,West,271,0.0,0.0,73,0.00,,,0.00,meteohub,2014-08-01 05:52:00,
2014-08-01 00:57:00,67.8,58.8,30.03,West,271,0.0,0.0,73,0.00,,,0.00,meteohub,2014-08-01 05:57:00,
2014-08-01 01:02:00,68.0,59.0,30.02,West,271,0.0,0.0,73,0.00,,,0.00,meteohub,2014-08-01 06:02:00,
2014-08-01 01:07:00,68.2,58.8,30.02,West,271,0.0,0.0,72,0.00,,,0.00,meteohub,2014-08-01 06:07:00,
2014-08-01 01:12:00,68.2,59.5,30.03,West,271,0.0,0.0,74,0.00,,,0.00,meteohub,2014-08-01 06:12:00,
2014-08-01 01:17:00,67.6,59.0,30.03,West,271,0.0,0.0,74,0.00,,,0.00,meteohub,2014-08-01 06:17:00,
2014-08-01 01:22:00,67.5,59.2,30.03,West,271,0.0,0.0,75,0.00,,,0.00,meteohub,2014-08-01 06:22:00,
2014-08-01 01:27:00,67.1,58.8,30.03,West,271,0.0,0.0,75,0.00,,,0.00,meteohub,2014-08-01 06:27:00,
2014-08-01 01:32:00,66.7,58.6,30.03,West,271,0.0,0.0,75,0.00,,,0.00,meteohub,2014-08-01 06:32:00,
2014-08-01 01:37:00,66.7,58.6,30.03,West,271,0.0,0.0,75,0.00,,,0.00,meteohub,2014-08-01 06:37:00,
2014-08-01 01:42:00,66.7,58.6,30.03,West,270,0.0,0.0,75,0.00,,,0.00,meteohub,2014-08-01 06:42:00,
2014-08-01 01:47:00,66.9,58.8,30.03,West,261,0.0,2.0,75,0.00,,,0.00,meteohub,2014-08-01 06:47:00,
2014-08-01 01:52:00,66.9,58.8,30.03,West,261,0.0,3.0,75,0.00,,,0.00,meteohub,2014-08-01 06:52:00,
2014-08-01 01:57:00,66.9,58.8,30.03,West,261,0.0,3.0,75,0.00,,,0.00,meteohub,2014-08-01 06:57:00,
2014-08-01 02:02:00,66.7,58.6,30.03,West,261,0.0,3.0,75,0.00,,,0.00,meteohub,2014-08-01 07:02:00,
2014-08-01 02:07:00,66.7,58.6,30.03,West,261,0.0,0.0,75,0.00,,,0.00,meteohub,2014-08-01 07:07:00,
2014-08-01 02:12:00,66.7,58.6,30.03,West,261,0.0,0.0,75,0.00,,,0.00,meteohub,2014-08-01 07:12:00,
2014-08-01 02:17:00,66.7,59.0,30.03,West,261,0.0,0.0,76,0.00,,,0.00,meteohub,2014-08-01 07:17:00,
2014-08-01 02:22:00,66.6,58.8,30.03,West,259,0.0,0.0,76,0.00,,,0.00,meteohub,2014-08-01 07:22:00,
2014-08-01 02:27:00,66.6,58.8,30.03,West,259,0.0,1.0,76,0.00,,,0.00,meteohub,2014-08-01 07:27:00,
2014-08-01 02:32:00,66.4,58.6,30.03,West,259,0.0,1.0,76,0.00,,,0.00,meteohub,2014-08-01 07:32:00,
2014-08-01 02:37:00,66.4,58.6,30.03,West,259,0.0,1.0,76,0.00,,,0.00,meteohub,2014-08-01 07:37:00,
2014-08-01 02:42:00,66.4,58.6,30.03,West,259,0.0,1.0,76,0.00,,,0.00,meteohub,2014-08-01 07:42:00,
2014-08-01 02:47:00,66.2,58.5,30.03,West,259,0.0,0.0,76,0.00,,,0.00,meteohub,2014-08-01 07:47:00,
2014-08-01 02:52:00,66.2,58.5,30.03,West,259,0.0,0.0,76,0.00,,,0.00,meteohub,2014-08-01 07:52:00,
2014-08-01 02:57:00,66.2,58.5,30.03,West,259,0.0,0.0,76,0.00,,,0.00,meteohub,2014-08-01 07:57:00,
2014-08-01 03:02:00,66.0,58.3,30.03,West,259,0.0,0.0,76,0.00,,,0.00,meteohub,2014-08-01 08:02:00,
2014-08-01 03:07:00,66.0,58.3,30.03,West,259,0.0,0.0,76,0.00,,,0.00,meteohub,2014-08-01 08:07:00,
2014-08-01 03:12:00,66.0,58.3,30.03,West,259,0.0,0.0,76,0.00,,,0.00,meteohub,2014-08-01 08:12:00,
2014-08-01 03:17:00,65.8,58.5,30.03,West,259,0.0,0.0,77,0.00,,,0.00,meteohub,2014-08-01 08:17:00,
2014-08-01 03:22:00,65.8,58.5,30.03,West,259,0.0,1.0,77,0.00,,,0.00,meteohub,2014-08-01 08:22:00,
2014-08-01 03:27:00,65.7,58.3,30.03,West,259,0.0,1.0,77,0.00,,,0.00,meteohub,2014-08-01 08:27:00,
2014-08-01 03:32:00,65.7,58.3,30.03,West,259,0.0,1.0,77,0.00,,,0.00,meteohub,2014-08-01 08:32:00,
2014-08-01 03:37:00,66.0,58.3,30.03,WSW,254,0.0,3.0,76,0.00,,,0.00,meteohub,2014-08-01 08:37:00,
2014-08-01 03:42:00,66.4,58.3,30.04,WSW,253,0.0,4.0,75,0.00,,,0.00,meteohub,2014-08-01 08:42:00,
2014-08-01 03:47:00,66.6,58.5,30.04,WSW,253,0.0,4.0,75,0.00,,,0.00,meteohub,2014-08-01 08:47:00,
2014-08-01 03:52:00,66.6,58.1,30.04,WSW,253,0.0,4.0,74,0.00,,,0.00,meteohub,2014-08-01 08:52:00,
2014-08-01 03:57:00,66.4,57.9,30.04,WSW,253,0.0,0.0,74,0.00,,,0.00,meteohub,2014-08-01 08:57:00,
2014-08-01 04:02:00,66.6,57.6,30.03,WSW,253,0.0,2.0,73,0.00,,,0.00,meteohub,2014-08-01 09:02:00,
2014-08-01 04:07:00,66.7,57.7,30.04,WSW,253,0.0,4.0,73,0.00,,,0.00,meteohub,2014-08-01 09:07:00,
2014-08-01 04:12:00,66.9,57.6,30.04,WSW,252,0.0,4.0,72,0.00,,,0.00,meteohub,2014-08-01 09:12:00,
2014-08-01 04:17:00,66.9,57.6,30.04,WSW,252,0.0,4.0,72,0.00,,,0.00,meteohub,2014-08-01 09:17:00,
2014-08-01 04:22:00,66.9,57.6,30.04,WSW,252,0.0,4.0,72,0.00,,,0.00,meteohub,2014-08-01 09:22:00,
2014-08-01 04:27:00,66.7,57.4,30.04,WSW,252,0.0,1.0,72,0.00,,,0.00,meteohub,2014-08-01 09:27:00,
2014-08-01 04:32:00,66.7,57.4,30.04,WSW,252,0.0,0.0,72,0.00,,,0.00,meteohub,2014-08-01 09:32:00,
2014-08-01 04:37:00,66.6,57.6,30.04,WSW,252,0.0,0.0,73,0.00,,,0.00,meteohub,2014-08-01 09:37:00,
2014-08-01 04:42:00,66.4,57.4,30.04,WSW,252,0.0,1.0,73,0.00,,,0.00,meteohub,2014-08-01 09:42:00,
2014-08-01 04:47:00,66.4,57.9,30.04,WSW,252,0.0,1.0,74,0.00,,,0.00,meteohub,2014-08-01 09:47:00,
2014-08-01 04:52:00,66.0,57.6,30.04,WSW,253,0.0,1.0,74,0.00,,,0.00,meteohub,2014-08-01 09:52:00,
2014-08-01 04:57:00,65.8,57.7,30.04,WSW,253,0.0,1.0,75,0.00,,,0.00,meteohub,2014-08-01 09:57:00,
2014-08-01 05:02:00,65.8,57.7,30.04,WSW,253,0.0,1.0,75,0.00,,,0.00,meteohub,2014-08-01 10:02:00,
2014-08-01 05:07:00,65.8,57.7,30.04,WSW,253,0.0,1.0,75,0.00,,,0.00,meteohub,2014-08-01 10:07:00,
2014-08-01 05:12:00,65.7,57.6,30.04,WSW,253,0.0,0.0,75,0.00,,,0.00,meteohub,2014-08-01 10:12:00,
2014-08-01 05:17:00,65.7,57.9,30.04,WSW,253,0.0,0.0,76,0.00,,,0.00,meteohub,2014-08-01 10:17:00,
2014-08-01 05:22:00,65.5,57.7,30.04,WSW,253,0.0,0.0,76,0.00,,,0.00,meteohub,2014-08-01 10:22:00,
2014-08-01 05:27:00,65.5,57.4,30.04,WSW,253,0.0,0.0,75,0.00,,,0.00,meteohub,2014-08-01 10:27:00,
2014-08-01 05:32:00,65.7,57.6,30.04,WSW,253,0.0,0.0,75,0.00,,,0.00,meteohub,2014-08-01 10:32:00,
2014-08-01 05:37:00,65.8,57.7,30.05,WSW,253,0.0,1.0,75,0.00,,,0.00,meteohub,2014-08-01 10:37:00,
2014-08-01 05:42:00,65.8,57.7,30.05,WSW,254,0.0,1.0,75,0.00,,,0.00,meteohub,2014-08-01 10:42:00,
2014-08-01 05:47:00,65.7,57.6,30.05,WSW,255,0.0,3.0,75,0.00,,,0.00,meteohub,2014-08-01 10:47:00,
2014-08-01 05:52:00,65.7,57.6,30.05,West,263,0.0,5.0,75,0.00,,,0.00,meteohub,2014-08-01 10:52:00,
2014-08-01 05:57:00,65.7,57.6,30.05,West,263,0.0,5.0,75,0.00,,,0.00,meteohub,2014-08-01 10:57:00,
2014-08-01 06:02:00,65.5,57.4,30.05,West,263,0.0,5.0,75,0.00,,,0.00,meteohub,2014-08-01 11:02:00,
2014-08-01 06:07:00,65.5,57.4,30.05,West,263,0.0,5.0,75,0.00,,,0.00,meteohub,2014-08-01 11:07:00,
2014-08-01 06:12:00,65.7,57.6,30.05,West,263,0.0,0.0,75,0.00,,,0.00,meteohub,2014-08-01 11:12:00,
2014-08-01 06:17:00,65.7,57.2,30.05,West,262,0.0,1.0,74,0.00,,,0.00,meteohub,2014-08-01 11:17:00,
2014-08-01 06:22:00,65.8,57.4,30.05,West,263,0.0,5.0,74,0.00,,,0.00,meteohub,2014-08-01 11:22:00,
2014-08-01 06:27:00,65.8,57.4,30.05,West,263,0.0,5.0,74,0.00,,,0.00,meteohub,2014-08-01 11:27:00,
2014-08-01 06:32:00,65.8,57.4,30.05,West,263,0.0,5.0,74,0.00,,,0.00,meteohub,2014-08-01 11:32:00,
2014-08-01 06:37:00,65.8,57.4,30.05,West,263,0.0,2.0,74,0.00,,,0.00,meteohub,2014-08-01 11:37:00,
2014-08-01 06:42:00,65.8,57.4,30.05,West,263,0.0,3.0,74,0.00,,,0.00,meteohub,2014-08-01 11:42:00,
2014-08-01 06:47:00,66.2,57.2,30.05,West,263,0.0,3.0,73,0.00,,,0.00,meteohub,2014-08-01 11:47:00,
2014-08-01 06:52:00,66.4,57.0,30.05,West,263,0.0,3.0,72,0.00,,,0.00,meteohub,2014-08-01 11:52:00,
2014-08-01 06:57:00,66.6,57.2,30.05,West,263,0.0,3.0,72,0.00,,,0.00,meteohub,2014-08-01 11:57:00,
2014-08-01 07:02:00,66.7,57.4,30.06,West,263,0.0,3.0,72,0.00,,,0.00,meteohub,2014-08-01 12:02:00,
2014-08-01 07:07:00,67.3,57.6,30.06,West,263,0.0,3.0,71,0.00,,,0.00,meteohub,2014-08-01 12:07:00,
2014-08-01 07:12:00,67.6,57.9,30.06,West,263,0.0,1.0,71,0.00,,,0.00,meteohub,2014-08-01 12:12:00,
2014-08-01 07:17:00,67.8,57.7,30.06,West,263,0.0,0.0,70,0.00,,,0.00,meteohub,2014-08-01 12:17:00,
2014-08-01 07:22:00,68.2,58.1,30.06,West,263,0.0,6.0,70,0.00,,,0.00,meteohub,2014-08-01 12:22:00,
2014-08-01 07:27:00,68.5,57.9,30.06,West,263,0.0,6.0,69,0.00,,,0.00,meteohub,2014-08-01 12:27:00,
2014-08-01 07:32:00,68.9,57.9,30.06,West,263,0.0,6.0,68,0.00,,,0.00,meteohub,2014-08-01 12:32:00,
2014-08-01 07:37:00,69.4,58.5,30.06,West,263,0.0,0.0,68,0.00,,,0.00,meteohub,2014-08-01 12:37:00,
2014-08-01 07:42:00,69.6,58.1,30.06,West,263,0.0,0.0,67,0.00,,,0.00,meteohub,2014-08-01 12:42:00,
2014-08-01 07:47:00,70.0,58.1,30.06,West,263,0.0,2.0,66,0.00,,,0.00,meteohub,2014-08-01 12:47:00,
2014-08-01 07:52:00,70.0,58.1,30.06,WNW,299,0.0,2.0,66,0.00,,,0.00,meteohub,2014-08-01 12:52:00,
2014-08-01 07:57:00,70.2,58.3,30.06,WNW,299,0.0,5.0,66,0.00,,,0.00,meteohub,2014-08-01 12:57:00,
2014-08-01 08:02:00,70.3,58.5,30.06,WNW,299,0.0,5.0,66,0.00,,,0.00,meteohub,2014-08-01 13:02:00,
2014-08-01 08:07:00,70.7,57.9,30.06,NW,313,3.0,5.0,64,0.00,,,0.00,meteohub,2014-08-01 13:07:00,
2014-08-01 08:12:00,70.7,57.9,30.06,NW,312,5.0,5.0,64,0.00,,,0.00,meteohub,2014-08-01 13:12:00,
2014-08-01 08:17:00,70.5,58.1,30.06,NW,310,3.0,9.0,65,0.00,,,0.00,meteohub,2014-08-01 13:17:00,
2014-08-01 08:22:00,70.3,58.1,30.07,NW,308,4.0,10.0,65,0.00,,,0.00,meteohub,2014-08-01 13:22:00,
2014-08-01 08:27:00,70.3,58.1,30.07,NW,314,6.0,10.0,65,0.00,,,0.00,meteohub,2014-08-01 13:27:00,
2014-08-01 08:32:00,70.5,58.1,30.07,NW,311,0.0,10.0,65,0.00,,,0.00,meteohub,2014-08-01 13:32:00,
2014-08-01 08:37:00,71.1,58.6,30.07,NW,311,0.0,8.0,65,0.00,,,0.00,meteohub,2014-08-01 13:37:00,
2014-08-01 08:42:00,72.0,59.2,30.07,NW,311,0.0,8.0,64,0.00,,,0.00,meteohub,2014-08-01 13:42:00,
2014-08-01 08:47:00,72.7,58.8,30.07,WNW,295,1.0,6.0,62,0.00,,,0.00,meteohub,2014-08-01 13:47:00,
2014-08-01 08:52:00,72.9,59.0,30.07,West,264,0.0,3.0,62,0.00,,,0.00,meteohub,2014-08-01 13:52:00,
2014-08-01 08:57:00,72.9,59.0,30.07,West,263,0.0,5.0,62,0.00,,,0.00,meteohub,2014-08-01 13:57:00,
2014-08-01 09:02:00,73.2,59.0,30.07,West,263,0.0,5.0,61,0.00,,,0.00,meteohub,2014-08-01 14:02:00,
2014-08-01 09:07:00,73.6,59.4,30.07,West,270,1.0,5.0,61,0.00,,,0.00,meteohub,2014-08-01 14:07:00,
2014-08-01 09:12:00,73.8,59.5,30.07,NW,305,0.0,5.0,61,0.00,,,0.00,meteohub,2014-08-01 14:12:00,
2014-08-01 09:17:00,73.6,58.8,30.07,NW,305,0.0,9.0,60,0.00,,,0.00,meteohub,2014-08-01 14:17:00,
2014-08-01 09:22:00,73.6,59.4,30.07,NW,305,0.0,9.0,61,0.00,,,0.00,meteohub,2014-08-01 14:22:00,
2014-08-01 09:27:00,73.8,59.5,30.08,NW,305,0.0,9.0,61,0.00,,,0.00,meteohub,2014-08-01 14:27:00,
2014-08-01 09:32:00,74.5,59.7,30.07,WNW,297,3.0,5.0,60,0.00,,,0.00,meteohub,2014-08-01 14:32:00,
2014-08-01 09:37:00,74.7,59.9,30.08,WNW,291,0.0,5.0,60,0.00,,,0.00,meteohub,2014-08-01 14:37:00,
2014-08-01 09:42:00,75.0,59.7,30.07,WNW,291,0.0,5.0,59,0.00,,,0.00,meteohub,2014-08-01 14:42:00,
2014-08-01 09:47:00,75.4,60.1,30.08,WNW,288,0.0,7.0,59,0.00,,,0.00,meteohub,2014-08-01 14:47:00,
2014-08-01 09:52:00,75.6,60.3,30.08,WNW,288,0.0,7.0,59,0.00,,,0.00,meteohub,2014-08-01 14:52:00,
2014-08-01 09:57:00,75.7,59.9,30.08,WNW,295,4.0,7.0,58,0.00,,,0.00,meteohub,2014-08-01 14:57:00,
2014-08-01 10:02:00,75.4,60.1,30.08,NW,318,0.0,8.0,59,0.00,,,0.00,meteohub,2014-08-01 15:02:00,
2014-08-01 10:07:00,75.7,60.4,30.08,NW,315,3.0,8.0,59,0.00,,,0.00,meteohub,2014-08-01 15:07:00,
2014-08-01 10:12:00,75.6,60.3,30.08,NW,307,2.0,8.0,59,0.00,,,0.00,meteohub,2014-08-01 15:12:00,
2014-08-01 10:17:00,75.6,60.3,30.08,NW,317,4.0,7.0,59,0.00,,,0.00,meteohub,2014-08-01 15:17:00,
2014-08-01 10:22:00,75.9,60.6,30.08,NW,316,1.0,10.0,59,0.00,,,0.00,meteohub,2014-08-01 15:22:00,
2014-08-01 10:27:00,76.5,60.6,30.08,NW,326,5.0,10.0,58,0.00,,,0.00,meteohub,2014-08-01 15:27:00,
2014-08-01 10:32:00,76.5,60.1,30.08,NW,326,0.0,6.0,57,0.00,,,0.00,meteohub,2014-08-01 15:32:00,
2014-08-01 10:37:00,76.8,60.4,30.08,NW,314,0.0,6.0,57,0.00,,,0.00,meteohub,2014-08-01 15:37:00,
2014-08-01 10:42:00,76.8,59.4,30.08,WNW,299,2.0,6.0,55,0.00,,,0.00,meteohub,2014-08-01 15:42:00,
2014-08-01 10:47:00,77.2,60.3,30.08,WNW,287,0.0,8.0,56,0.00,,,0.00,meteohub,2014-08-01 15:47:00,
2014-08-01 10:52:00,77.4,59.9,30.08,NW,323,3.0,8.0,55,0.00,,,0.00,meteohub,2014-08-01 15:52:00,
2014-08-01 10:57:00,77.4,58.8,30.08,WNW,293,0.0,8.0,53,0.00,,,0.00,meteohub,2014-08-01 15:57:00,
2014-08-01 11:02:00,77.5,59.0,30.08,WSW,245,0.0,10.0,53,0.00,,,0.00,meteohub,2014-08-01 16:02:00,
2014-08-01 11:07:00,78.1,59.5,30.08,West,260,0.0,10.0,53,0.00,,,0.00,meteohub,2014-08-01 16:07:00,
2014-08-01 11:12:00,78.3,59.7,30.08,NW,305,9.0,9.0,53,0.00,,,0.00,meteohub,2014-08-01 16:12:00,
2014-08-01 11:17:00,78.3,59.2,30.08,WSW,251,0.0,9.0,52,0.00,,,0.00,meteohub,2014-08-01 16:17:00,
2014-08-01 11:22:00,78.6,59.5,30.08,NNW,327,3.0,9.0,52,0.00,,,0.00,meteohub,2014-08-01 16:22:00,
2014-08-01 11:27:00,78.4,58.8,30.08,NW,312,0.0,9.0,51,0.00,,,0.00,meteohub,2014-08-01 16:27:00,
2014-08-01 11:32:00,78.3,60.3,30.08,NW,325,5.0,9.0,54,0.00,,,0.00,meteohub,2014-08-01 16:32:00,
2014-08-01 11:37:00,78.1,59.5,30.08,West,270,0.0,9.0,53,0.00,,,0.00,meteohub,2014-08-01 16:37:00,
2014-08-01 11:42:00,78.3,60.3,30.08,NNW,330,0.0,9.0,54,0.00,,,0.00,meteohub,2014-08-01 16:42:00,
2014-08-01 11:47:00,79.3,60.3,30.08,NNE,25,2.0,9.0,52,0.00,,,0.00,meteohub,2014-08-01 16:47:00,
2014-08-01 11:52:00,79.3,60.3,30.08,North,358,0.0,9.0,52,0.00,,,0.00,meteohub,2014-08-01 16:52:00,
2014-08-01 11:57:00,79.7,59.9,30.08,North,4,0.0,9.0,51,0.00,,,0.00,meteohub,2014-08-01 16:57:00,
2014-08-01 12:02:00,79.5,59.7,30.08,NNW,338,4.0,9.0,51,0.00,,,0.00,meteohub,2014-08-01 17:02:00,
2014-08-01 12:07:00,79.5,59.7,30.08,NW,316,4.0,7.0,51,0.00,,,0.00,meteohub,2014-08-01 17:07:00,
2014-08-01 12:12:00,79.5,59.7,30.08,NW,326,3.0,7.0,51,0.00,,,0.00,meteohub,2014-08-01 17:12:00,
2014-08-01 12:17:00,79.5,59.7,30.07,WNW,299,0.0,8.0,51,0.00,,,0.00,meteohub,2014-08-01 17:17:00,
2014-08-01 12:22:00,80.1,60.3,30.07,NNW,340,7.0,8.0,51,0.00,,,0.00,meteohub,2014-08-01 17:22:00,
2014-08-01 12:27:00,79.9,60.1,30.07,NE,46,2.0,10.0,51,0.00,,,0.00,meteohub,2014-08-01 17:27:00,
2014-08-01 12:32:00,79.5,60.4,30.07,NW,317,3.0,10.0,52,0.00,,,0.00,meteohub,2014-08-01 17:32:00,
2014-08-01 12:37:00,79.5,59.7,30.07,NNW,344,5.0,10.0,51,0.00,,,0.00,meteohub,2014-08-01 17:37:00,
2014-08-01 12:42:00,80.1,60.3,30.07,NW,324,4.0,9.0,51,0.00,,,0.00,meteohub,2014-08-01 17:42:00,
2014-08-01 12:47:00,80.1,59.7,30.06,NW,322,6.0,10.0,50,0.00,,,0.00,meteohub,2014-08-01 17:47:00,
2014-08-01 12:52:00,79.5,58.6,30.06,NW,312,5.0,10.0,49,0.00,,,0.00,meteohub,2014-08-01 17:52:00,
2014-08-01 12:57:00,79.3,59.7,30.06,NNW,328,4.0,10.0,51,0.00,,,0.00,meteohub,2014-08-01 17:57:00,
2014-08-01 13:02:00,79.5,59.7,30.06,NNW,344,1.0,10.0,51,0.00,,,0.00,meteohub,2014-08-01 18:02:00,
2014-08-01 13:07:00,80.2,59.4,30.06,NW,315,3.0,10.0,49,0.00,,,0.00,meteohub,2014-08-01 18:07:00,
2014-08-01 13:12:00,80.2,59.4,30.06,NW,326,4.0,10.0,49,0.00,,,0.00,meteohub,2014-08-01 18:12:00,
2014-08-01 13:17:00,80.6,59.7,30.06,NE,36,2.0,7.0,49,0.00,,,0.00,meteohub,2014-08-01 18:17:00,
2014-08-01 13:22:00,80.4,59.0,30.06,NW,318,5.0,7.0,48,0.00,,,0.00,meteohub,2014-08-01 18:22:00,
2014-08-01 13:27:00,80.2,59.4,30.06,NW,318,0.0,8.0,49,0.00,,,0.00,meteohub,2014-08-01 18:27:00,
2014-08-01 13:32:00,80.6,59.7,30.06,North,6,0.0,8.0,49,0.00,,,0.00,meteohub,2014-08-01 18:32:00,
2014-08-01 13:37:00,80.8,59.9,30.06,NW,320,4.0,8.0,49,0.00,,,0.00,meteohub,2014-08-01 18:37:00,
2014-08-01 13:42:00,80.8,59.2,30.05,NNW,337,1.0,8.0,48,0.00,,,0.00,meteohub,2014-08-01 18:42:00,
2014-08-01 13:47:00,81.0,59.4,30.05,NW,310,0.0,9.0,48,0.00,,,0.00,meteohub,2014-08-01 18:47:00,
2014-08-01 13:52:00,80.8,58.1,30.05,NW,322,4.0,9.0,46,0.00,,,0.00,meteohub,2014-08-01 18:52:00,
2014-08-01 13:57:00,81.1,59.5,30.05,North,352,0.0,7.0,48,0.00,,,0.00,meteohub,2014-08-01 18:57:00,
2014-08-01 14:02:00,81.7,59.5,30.05,NE,43,1.0,6.0,47,0.00,,,0.00,meteohub,2014-08-01 19:02:00,
2014-08-01 14:07:00,81.1,59.0,30.05,North,349,4.0,9.0,47,0.00,,,0.00,meteohub,2014-08-01 19:07:00,
2014-08-01 14:12:00,81.0,58.8,30.05,NW,318,2.0,9.0,47,0.00,,,0.00,meteohub,2014-08-01 19:12:00,
2014-08-01 14:17:00,81.0,58.8,30.05,NNW,343,0.0,9.0,47,0.00,,,0.00,meteohub,2014-08-01 19:17:00,
2014-08-01 14:22:00,80.8,58.6,30.05,NW,321,7.0,9.0,47,0.00,,,0.00,meteohub,2014-08-01 19:22:00,
2014-08-01 14:27:00,80.4,58.3,30.05,WNW,299,3.0,9.0,47,0.00,,,0.00,meteohub,2014-08-01 19:27:00,
2014-08-01 14:32:00,80.2,58.1,30.05,WNW,302,4.0,9.0,47,0.00,,,0.00,meteohub,2014-08-01 19:32:00,
2014-08-01 14:37:00,80.6,57.9,30.05,NW,307,3.0,8.0,46,0.00,,,0.00,meteohub,2014-08-01 19:37:00,
2014-08-01 14:42:00,80.2,58.1,30.04,NW,305,2.0,7.0,47,0.00,,,0.00,meteohub,2014-08-01 19:42:00,
2014-08-01 14:47:00,80.2,57.6,30.04,NW,323,6.0,9.0,46,0.00,,,0.00,meteohub,2014-08-01 19:47:00,
2014-08-01 14:52:00,80.4,58.3,30.04,NW,311,4.0,9.0,47,0.00,,,0.00,meteohub,2014-08-01 19:52:00,
2014-08-01 14:57:00,80.8,58.1,30.04,NNW,328,3.0,9.0,46,0.00,,,0.00,meteohub,2014-08-01 19:57:00,
2014-08-01 15:02:00,81.1,57.7,30.04,NW,321,0.0,7.0,45,0.00,,,0.00,meteohub,2014-08-01 20:02:00,
2014-08-01 15:07:00,81.7,57.6,30.04,NNW,328,3.0,7.0,44,0.00,,,0.00,meteohub,2014-08-01 20:07:00,
2014-08-01 15:12:00,81.7,57.6,30.04,NE,34,3.0,7.0,44,0.00,,,0.00,meteohub,2014-08-01 20:12:00,
2014-08-01 15:17:00,82.2,57.6,30.03,NNW,342,1.0,7.0,43,0.00,,,0.00,meteohub,2014-08-01 20:17:00,
2014-08-01 15:22:00,82.6,57.7,30.04,NW,316,0.0,7.0,43,0.00,,,0.00,meteohub,2014-08-01 20:22:00,
2014-08-01 15:27:00,82.2,56.8,30.04,NW,314,7.0,9.0,42,0.00,,,0.00,meteohub,2014-08-01 20:27:00,
2014-08-01 15:32:00,81.9,57.7,30.04,NNW,327,8.0,9.0,44,0.00,,,0.00,meteohub,2014-08-01 20:32:00,
2014-08-01 15:37:00,81.7,57.6,30.04,NW,308,1.0,9.0,44,0.00,,,0.00,meteohub,2014-08-01 20:37:00,
2014-08-01 15:42:00,81.3,57.9,30.04,West,276,0.0,16.0,45,0.00,,,0.00,meteohub,2014-08-01 20:42:00,
2014-08-01 15:47:00,82.4,58.3,30.04,NW,312,7.0,16.0,44,0.00,,,0.00,meteohub,2014-08-01 20:47:00,
2014-08-01 15:52:00,82.6,57.2,30.04,WNW,296,0.0,16.0,42,0.00,,,0.00,meteohub,2014-08-01 20:52:00,
2014-08-01 15:57:00,82.8,57.4,30.04,NNE,28,2.0,9.0,42,0.00,,,0.00,meteohub,2014-08-01 20:57:00,
2014-08-01 16:02:00,82.6,57.2,30.04,NW,308,0.0,9.0,42,0.00,,,0.00,meteohub,2014-08-01 21:02:00,
2014-08-01 16:07:00,82.9,57.6,30.04,NW,309,0.0,8.0,42,0.00,,,0.00,meteohub,2014-08-01 21:07:00,
2014-08-01 16:12:00,83.3,57.2,30.03,NNW,336,0.0,8.0,41,0.00,,,0.00,meteohub,2014-08-01 21:12:00,
2014-08-01 16:17:00,82.8,57.4,30.03,NW,312,2.0,7.0,42,0.00,,,0.00,meteohub,2014-08-01 21:17:00,
2014-08-01 16:22:00,82.6,57.2,30.03,NW,312,2.0,10.0,42,0.00,,,0.00,meteohub,2014-08-01 21:22:00,
2014-08-01 16:27:00,82.4,57.0,30.03,NW,318,2.0,10.0,42,0.00,,,0.00,meteohub,2014-08-01 21:27:00,
2014-08-01 16:32:00,82.6,57.7,30.03,NW,310,0.0,10.0,43,0.00,,,0.00,meteohub,2014-08-01 21:32:00,
2014-08-01 16:37:00,82.9,57.6,30.03,WSW,248,0.0,10.0,42,0.00,,,0.00,meteohub,2014-08-01 21:37:00,
2014-08-01 16:42:00,83.5,57.9,30.03,NE,34,1.0,10.0,42,0.00,,,0.00,meteohub,2014-08-01 21:42:00,
2014-08-01 16:47:00,83.3,57.2,30.03,NW,310,5.0,9.0,41,0.00,,,0.00,meteohub,2014-08-01 21:47:00,
2014-08-01 16:52:00,82.6,57.2,30.03,NW,307,5.0,11.0,42,0.00,,,0.00,meteohub,2014-08-01 21:52:00,
2014-08-01 16:57:00,82.4,57.7,30.03,NW,326,2.0,11.0,43,0.00,,,0.00,meteohub,2014-08-01 21:57:00,
2014-08-01 17:02:00,82.4,57.7,30.03,NW,305,4.0,11.0,43,0.00,,,0.00,meteohub,2014-08-01 22:02:00,
2014-08-01 17:07:00,82.6,57.7,30.03,NNW,338,4.0,11.0,43,0.00,,,0.00,meteohub,2014-08-01 22:07:00,
2014-08-01 17:12:00,82.8,57.4,30.04,NW,325,5.0,11.0,42,0.00,,,0.00,meteohub,2014-08-01 22:12:00,
2014-08-01 17:17:00,82.6,57.2,30.04,North,4,0.0,11.0,42,0.00,,,0.00,meteohub,2014-08-01 22:17:00,
2014-08-01 17:22:00,82.6,59.0,30.05,North,3,14.0,14.0,45,0.00,,,0.00,meteohub,2014-08-01 22:22:00,
2014-08-01 17:27:00,78.1,55.0,30.06,ENE,62,12.0,20.0,45,0.00,,,0.00,meteohub,2014-08-01 22:27:00,
2014-08-01 17:32:00,74.8,52.7,30.06,NNE,33,21.0,33.0,46,0.00,,,0.00,meteohub,2014-08-01 22:32:00,
2014-08-01 17:37:00,72.7,53.4,30.06,East,87,18.0,33.0,51,0.00,,,0.00,meteohub,2014-08-01 22:37:00,
2014-08-01 17:42:00,72.3,52.2,30.06,NNE,24,13.0,28.0,49,0.00,,,0.00,meteohub,2014-08-01 22:42:00,
2014-08-01 17:47:00,72.7,53.4,30.06,ENE,60,14.0,27.0,51,0.00,,,0.00,meteohub,2014-08-01 22:47:00,
2014-08-01 17:52:00,72.7,56.1,30.06,NE,40,18.0,29.0,56,0.00,,,0.00,meteohub,2014-08-01 22:52:00,
2014-08-01 17:57:00,74.5,51.1,30.06,NE,51,15.0,34.0,44,0.00,,,0.00,meteohub,2014-08-01 22:57:00,
2014-08-01 18:02:00,74.7,52.5,30.06,NE,47,5.0,34.0,46,0.00,,,0.00,meteohub,2014-08-01 23:02:00,
2014-08-01 18:07:00,73.9,56.8,30.07,North,349,3.0,34.0,55,0.00,,,0.00,meteohub,2014-08-01 23:07:00,
2014-08-01 18:12:00,72.1,58.8,30.08,NW,325,16.0,18.0,63,0.00,,,0.00,meteohub,2014-08-01 23:12:00,
2014-08-01 18:17:00,70.3,60.4,30.08,NNE,23,8.0,18.0,71,0.00,,,0.00,meteohub,2014-08-01 23:17:00,
2014-08-01 18:22:00,69.3,62.1,30.08,NE,47,9.0,20.0,78,0.00,,,0.00,meteohub,2014-08-01 23:22:00,
2014-08-01 18:27:00,68.5,61.3,30.08,ENE,60,11.0,20.0,78,0.00,,,0.00,meteohub,2014-08-01 23:27:00,
2014-08-01 18:32:00,68.7,60.4,30.09,NNW,340,5.0,20.0,75,0.00,,,0.00,meteohub,2014-08-01 23:32:00,
2014-08-01 18:37:00,68.9,60.3,30.09,NNW,327,9.0,19.0,74,0.00,,,0.00,meteohub,2014-08-01 23:37:00,
2014-08-01 18:42:00,69.1,58.1,30.09,NW,326,4.0,23.0,68,0.00,,,0.00,meteohub,2014-08-01 23:42:00,
2014-08-01 18:47:00,69.4,60.1,30.09,NNE,22,7.0,23.0,72,0.00,,,0.00,meteohub,2014-08-01 23:47:00,
2014-08-01 18:52:00,68.5,61.3,30.09,ESE,106,13.0,23.0,78,0.00,,,0.00,meteohub,2014-08-01 23:52:00,
2014-08-01 18:57:00,67.6,61.2,30.10,NNW,348,5.0,24.0,80,0.00,,,0.00,meteohub,2014-08-01 23:57:00,
2014-08-01 19:02:00,67.5,61.3,30.10,NNE,20,7.0,24.0,81,0.00,,,0.00,meteohub,2014-08-02 00:02:00,
2014-08-01 19:07:00,67.5,60.8,30.10,NNW,341,9.0,24.0,79,0.00,,,0.00,meteohub,2014-08-02 00:07:00,
2014-08-01 19:12:00,67.8,60.3,30.10,NE,41,16.0,20.0,77,0.00,,,0.00,meteohub,2014-08-02 00:12:00,
2014-08-01 19:17:00,67.8,61.0,30.11,NNW,339,7.0,20.0,79,0.00,,,0.00,meteohub,2014-08-02 00:17:00,
2014-08-01 19:22:00,67.8,60.6,30.10,NE,35,7.0,20.0,78,0.00,,,0.00,meteohub,2014-08-02 00:22:00,
2014-08-01 19:27:00,67.8,59.2,30.10,NE,34,11.0,20.0,74,0.00,,,0.00,meteohub,2014-08-02 00:27:00,
2014-08-01 19:32:00,67.8,59.5,30.09,NE,43,10.0,20.0,75,0.00,,,0.00,meteohub,2014-08-02 00:32:00,
2014-08-01 19:37:00,67.8,58.8,30.09,ENE,66,6.0,20.0,73,0.00,,,0.00,meteohub,2014-08-02 00:37:00,
2014-08-01 19:42:00,67.6,58.3,30.08,North,4,9.0,16.0,72,0.00,,,0.00,meteohub,2014-08-02 00:42:00,
2014-08-01 19:47:00,67.6,57.9,30.07,East,97,7.0,15.0,71,0.00,,,0.00,meteohub,2014-08-02 00:47:00,
2014-08-01 19:52:00,67.5,57.4,30.08,East,88,5.0,16.0,70,0.00,,,0.00,meteohub,2014-08-02 00:52:00,
2014-08-01 19:57:00,67.6,57.0,30.08,NE,50,2.0,16.0,69,0.00,,,0.00,meteohub,2014-08-02 00:57:00,
2014-08-01 20:02:00,67.6,57.6,30.08,NNE,20,0.0,14.0,70,0.00,,,0.00,meteohub,2014-08-02 01:02:00,
2014-08-01 20:07:00,67.6,57.0,30.09,NNE,24,7.0,11.0,69,0.00,,,0.00,meteohub,2014-08-02 01:07:00,
2014-08-01 20:12:00,67.8,56.8,30.09,NNE,33,0.0,11.0,68,0.00,,,0.00,meteohub,2014-08-02 01:12:00,
2014-08-01 20:17:00,67.8,56.5,30.09,NNE,32,0.0,11.0,67,0.00,,,0.00,meteohub,2014-08-02 01:17:00,
2014-08-01 20:22:00,68.0,56.3,30.08,NNE,32,0.0,7.0,66,0.00,,,0.00,meteohub,2014-08-02 01:22:00,
2014-08-01 20:27:00,68.4,55.8,30.07,SE,146,3.0,3.0,64,0.00,,,0.00,meteohub,2014-08-02 01:27:00,
2014-08-01 20:33:00,68.7,54.7,30.07,SSE,167,3.0,4.0,61,0.00,,,0.00,meteohub,2014-08-02 01:33:00,
2014-08-01 20:38:00,68.9,54.9,30.07,SSE,153,0.0,7.0,61,0.00,,,0.00,meteohub,2014-08-02 01:38:00,
2014-08-01 20:43:00,69.1,55.0,30.07,SSE,153,0.0,7.0,61,0.00,,,0.00,meteohub,2014-08-02 01:43:00,
2014-08-01 20:48:00,69.1,55.6,30.06,South,170,0.0,7.0,62,0.00,,,0.00,meteohub,2014-08-02 01:48:00,
2014-08-01 20:53:00,68.7,55.6,30.06,SW,216,0.0,5.0,63,0.00,,,0.00,meteohub,2014-08-02 01:53:00,
2014-08-01 20:58:00,68.4,55.2,30.06,SW,222,3.0,5.0,63,0.00,,,0.00,meteohub,2014-08-02 01:58:00,
2014-08-01 21:03:00,68.4,55.2,30.07,SW,228,0.0,6.0,63,0.00,,,0.00,meteohub,2014-08-02 02:03:00,
2014-08-01 21:08:00,68.4,54.9,30.08,NE,44,6.0,6.0,62,0.00,,,0.00,meteohub,2014-08-02 02:08:00,
2014-08-01 21:13:00,68.7,55.2,30.08,NNE,16,0.0,6.0,62,0.00,,,0.00,meteohub,2014-08-02 02:13:00,
2014-08-01 21:18:00,69.1,54.7,30.08,SSW,208,1.0,8.0,60,0.00,,,0.00,meteohub,2014-08-02 02:18:00,
2014-08-01 21:24:00,69.3,54.9,30.09,South,187,0.0,8.0,60,0.00,,,0.00,meteohub,2014-08-02 02:24:00,
2014-08-01 21:29:00,69.4,55.4,30.09,ENE,69,0.0,9.0,61,0.00,,,0.00,meteohub,2014-08-02 02:29:00,
2014-08-01 21:34:00,69.4,55.4,30.10,ENE,69,0.0,9.0,61,0.00,,,0.00,meteohub,2014-08-02 02:34:00,
2014-08-01 21:39:00,69.3,55.2,30.10,SE,145,0.0,5.0,61,0.00,,,0.00,meteohub,2014-08-02 02:39:00,
2014-08-01 21:44:00,68.7,55.2,30.10,South,170,0.0,5.0,62,0.00,,,0.00,meteohub,2014-08-02 02:44:00,
2014-08-01 21:49:00,68.4,55.2,30.10,SSW,205,6.0,6.0,63,0.00,,,0.00,meteohub,2014-08-02 02:49:00,
2014-08-01 21:54:00,67.8,55.6,30.10,SSW,208,1.0,6.0,65,0.00,,,0.00,meteohub,2014-08-02 02:54:00,
2014-08-01 21:59:00,67.5,55.8,30.10,SW,226,0.0,6.0,66,0.00,,,0.00,meteohub,2014-08-02 02:59:00,
2014-08-01 22:04:00,67.1,56.1,30.10,SW,231,3.0,6.0,68,0.00,,,0.00,meteohub,2014-08-02 03:04:00,
2014-08-01 22:09:00,66.6,56.5,30.10,SW,231,0.0,6.0,70,0.00,,,0.00,meteohub,2014-08-02 03:09:00,
2014-08-01 22:15:00,66.0,56.7,30.10,SSW,199,5.0,5.0,72,0.00,,,0.00,meteohub,2014-08-02 03:15:00,
2014-08-01 22:20:00,65.8,57.0,30.10,SSE,166,4.0,9.0,73,0.00,,,0.00,meteohub,2014-08-02 03:20:00,
2014-08-01 22:25:00,65.7,56.8,30.11,SSE,155,9.0,10.0,73,0.00,,,0.00,meteohub,2014-08-02 03:25:00,